Time,TemperatureF,DewpointF,PressureIn,WindDirection,WindDirectionDegrees,WindSpeedMPH,WindSpeedGustMPH,Humidity,HourlyPrecipIn,Conditions,Clouds,dailyrainin,SoftwareType,DateUTC
2013-01-19 00:04:00,43.1,3.0,30.08,North,350,2.0,-999.0,19,-99.99,,,0.00,weatherlink.com 1.10,2013-01-19 08:04:00,
2013-01-19 00:19:00,43.2,3.0,30.07,SE,127,17.0,-999.0,19,-99.99,,,0.00,weatherlink.com 1.10,2013-01-19 08:19:00,
2013-01-19 00:34:00,44.0,2.0,30.08,ESE,117,5.0,-999.0,17,-99.99,,,0.00,weatherlink.com 1.10,2013-01-19 08:34:00,
2013-01-19 00:49:00,43.4,4.0,30.08,ENE,69,6.0,-999.0,19,-99.99,,,0.00,weatherlink.com 1.10,2013-01-19 08:49:00,
2013-01-19 01:04:00,43.4,2.0,30.08,West,263,6.0,-999.0,18,-99.99,,,0.00,weatherlink.com 1.10,2013-01-19 09:04:00,
2013-01-19 01:19:00,43.1,3.0,30.08,NE,48,1.0,-999.0,19,-99.99,,,0.00,weatherlink.com 1.10,2013-01-19 09:19:00,
2013-01-19 01:34:00,43.4,2.0,30.08,North,356,0.0,-999.0,18,-99.99,,,0.00,weatherlink.com 1.10,2013-01-19 09:34:00,
2013-01-19 01:49:00,43.2,3.0,30.08,NNE,14,4.0,-999.0,19,-99.99,,,0.00,weatherlink.com 1.10,2013-01-19 09:49:00,
2013-01-19 02:04:00,42.8,4.0,30.09,SE,136,7.0,-999.0,20,-99.99,,,0.00,weatherlink.com 1.10,2013-01-19 10:04:00,
2013-01-19 02:19:00,43.0,4.0,30.08,ESE,120,6.0,-999.0,20,-99.99,,,0.00,weatherlink.com 1.10,2013-01-19 10:19:00,
2013-01-19 02:34:00,43.1,3.0,30.08,SSE,167,10.0,-999.0,19,-99.99,,,0.00,weatherlink.com 1.10,2013-01-19 10:34:00,
2013-01-19 02:49:00,43.7,1.0,30.08,ESE,119,7.0,-999.0,17,-99.99,,,0.00,weatherlink.com 1.10,2013-01-19 10:49:00,
2013-01-19 03:04:00,44.1,0.0,30.08,East,93,10.0,-999.0,16,-99.99,,,0.00,weatherlink.com 1.10,2013-01-19 11:04:00,
2013-01-19 04:49:00,43.7,-1.0,30.10,SE,145,7.0,-999.0,15,-99.99,,,0.00,weatherlink.com 1.10,2013-01-19 12:49:00,
2013-01-19 05:04:00,44.2,-1.0,30.10,SSE,168,8.0,-999.0,15,-99.99,,,0.00,weatherlink.com 1.10,2013-01-19 13:04:00,
2013-01-19 05:19:00,44.2,-1.0,30.11,SSE,165,13.0,-999.0,15,-99.99,,,0.00,weatherlink.com 1.10,2013-01-19 13:19:00,
2013-01-19 05:49:00,44.7,-1.0,30.12,South,176,1.0,-999.0,15,-99.99,,,0.00,weatherlink.com 1.10,2013-01-19 13:49:00,
2013-01-19 06:04:00,44.7,-2.0,30.12,ESE,116,15.0,-999.0,14,-99.99,,,0.00,weatherlink.com 1.10,2013-01-19 14:04:00,
2013-01-19 06:35:00,45.0,-2.0,30.12,NE,42,0.0,-999.0,14,-99.99,,,0.00,weatherlink.com 1.10,2013-01-19 14:35:00,
2013-01-19 06:50:00,45.2,-3.0,30.12,WSW,248,6.0,-999.0,13,-99.99,,,0.00,weatherlink.com 1.10,2013-01-19 14:50:00,
2013-01-19 07:04:00,45.4,-2.0,30.14,South,175,16.0,-999.0,14,-99.99,,,0.00,weatherlink.com 1.10,2013-01-19 15:04:00,
2013-01-19 07:19:00,45.2,-2.0,30.13,South,184,3.0,-999.0,14,-99.99,,,0.00,weatherlink.com 1.10,2013-01-19 15:19:00,
2013-01-19 07:34:00,45.5,-3.0,30.14,East,86,8.0,-999.0,13,-99.99,,,0.00,weatherlink.com 1.10,2013-01-19 15:34:00,
2013-01-19 08:04:00,46.6,-1.0,30.13,ESE,116,12.0,-999.0,14,-99.99,,,0.00,weatherlink.com 1.10,2013-01-19 16:04:00,
2013-01-19 08:19:00,47.0,0.0,30.14,East,82,2.0,-999.0,14,-99.99,,,0.00,weatherlink.com 1.10,2013-01-19 16:19:00,
2013-01-19 08:34:00,46.9,0.0,30.14,SSE,151,5.0,-999.0,14,-99.99,,,0.00,weatherlink.com 1.10,2013-01-19 16:34:00,
2013-01-19 08:51:00,47.0,0.0,30.15,ENE,78,6.0,-999.0,14,-99.99,,,0.00,weatherlink.com 1.10,2013-01-19 16:51:00,
2013-01-19 09:05:00,47.3,0.0,30.16,SW,223,7.0,-999.0,14,-99.99,,,0.00,weatherlink.com 1.10,2013-01-19 17:05:00,
2013-01-19 09:19:00,47.0,0.0,30.16,ESE,104,3.0,-999.0,14,-99.99,,,0.00,weatherlink.com 1.10,2013-01-19 17:19:00,
2013-01-19 09:34:00,47.0,1.0,30.16,SW,229,13.0,-999.0,15,-99.99,,,0.00,weatherlink.com 1.10,2013-01-19 17:34:00,
2013-01-19 09:49:00,47.3,0.0,30.17,ESE,120,7.0,-999.0,14,-99.99,,,0.00,weatherlink.com 1.10,2013-01-19 17:49:00,
2013-01-19 10:04:00,47.6,2.0,30.17,South,175,11.0,-999.0,15,-99.99,,,0.00,weatherlink.com 1.10,2013-01-19 18:04:00,
2013-01-19 10:19:00,48.2,2.0,30.16,NE,44,0.0,-999.0,15,-99.99,,,0.00,weatherlink.com 1.10,2013-01-19 18:19:00,
2013-01-19 10:34:00,48.0,2.0,30.16,SSE,160,13.0,-999.0,15,-99.99,,,0.00,weatherlink.com 1.10,2013-01-19 18:34:00,
2013-01-19 10:49:00,47.7,2.0,30.15,WNW,288,6.0,-999.0,15,-99.99,,,0.00,weatherlink.com 1.10,2013-01-19 18:49:00,
2013-01-19 11:04:00,48.6,3.0,30.14,North,359,0.0,-999.0,15,-99.99,,,0.00,weatherlink.com 1.10,2013-01-19 19:04:00,
2013-01-19 11:19:00,47.9,2.0,30.15,NE,56,6.0,-999.0,15,-99.99,,,0.00,weatherlink.com 1.10,2013-01-19 19:19:00,
2013-01-19 11:34:00,48.2,2.0,30.14,South,182,1.0,-999.0,15,-99.99,,,0.00,weatherlink.com 1.10,2013-01-19 19:34:00,
2013-01-19 11:49:00,48.0,2.0,30.13,SSE,158,0.0,-999.0,15,-99.99,,,0.00,weatherlink.com 1.10,2013-01-19 19:49:00,
2013-01-19 12:04:00,47.6,2.0,30.13,NW,312,1.0,-999.0,15,-99.99,,,0.00,weatherlink.com 1.10,2013-01-19 20:04:00,
2013-01-19 12:34:00,48.2,2.0,30.12,ESE,102,0.0,-999.0,15,-99.99,,,0.00,weatherlink.com 1.10,2013-01-19 20:34:00,
2013-01-19 12:49:00,48.2,2.0,30.12,NNE,14,2.0,-999.0,15,-99.99,,,0.00,weatherlink.com 1.10,2013-01-19 20:49:00,
2013-01-19 13:34:00,48.6,3.0,30.10,NNE,25,2.0,-999.0,15,-99.99,,,0.00,weatherlink.com 1.10,2013-01-19 21:34:00,
2013-01-19 14:04:00,48.3,2.0,30.09,NNE,32,0.0,-999.0,15,-99.99,,,0.00,weatherlink.com 1.10,2013-01-19 22:04:00,
2013-01-19 14:19:00,48.3,1.0,30.09,SSE,151,4.0,-999.0,14,-99.99,,,0.00,weatherlink.com 1.10,2013-01-19 22:19:00,
2013-01-19 14:49:00,48.5,3.0,30.09,East,90,6.0,-999.0,15,-99.99,,,0.00,weatherlink.com 1.10,2013-01-19 22:49:00,
2013-01-19 15:19:00,48.9,3.0,30.09,South,171,8.0,-999.0,15,-99.99,,,0.00,weatherlink.com 1.10,2013-01-19 23:19:00,
2013-01-19 15:34:00,48.9,0.0,30.09,East,79,0.0,-999.0,13,-99.99,,,0.00,weatherlink.com 1.10,2013-01-19 23:34:00,
2013-01-19 15:49:00,49.2,0.0,30.09,East,82,5.0,-999.0,13,-99.99,,,0.00,weatherlink.com 1.10,2013-01-19 23:49:00,
2013-01-19 16:19:00,48.8,1.0,30.10,East,100,5.0,-999.0,14,-99.99,,,0.00,weatherlink.com 1.10,2013-01-20 00:19:00,
2013-01-19 16:34:00,48.2,2.0,30.10,ESE,107,12.0,-999.0,15,-99.99,,,0.00,weatherlink.com 1.10,2013-01-20 00:34:00,
2013-01-19 16:49:00,47.7,3.0,30.10,East,93,2.0,-999.0,16,-99.99,,,0.00,weatherlink.com 1.10,2013-01-20 00:49:00,
2013-01-19 17:04:00,46.7,0.0,30.11,NNE,30,2.0,-999.0,14,-99.99,,,0.00,weatherlink.com 1.10,2013-01-20 01:04:00,
2013-01-19 17:19:00,45.1,1.0,30.11,ESE,119,7.0,-999.0,16,-99.99,,,0.00,weatherlink.com 1.10,2013-01-20 01:19:00,
2013-01-19 17:34:00,44.7,1.0,30.11,ESE,103,1.0,-999.0,16,-99.99,,,0.00,weatherlink.com 1.10,2013-01-20 01:34:00,
2013-01-19 18:04:00,45.0,1.0,30.12,ESE,106,5.0,-999.0,16,-99.99,,,0.00,weatherlink.com 1.10,2013-01-20 02:04:00,
2013-01-19 18:19:00,45.1,1.0,30.12,ESE,114,3.0,-999.0,16,-99.99,,,0.00,weatherlink.com 1.10,2013-01-20 02:19:00,
2013-01-19 18:34:00,44.8,1.0,30.12,ENE,71,0.0,-999.0,16,-99.99,,,0.00,weatherlink.com 1.10,2013-01-20 02:34:00,
2013-01-19 18:49:00,44.7,1.0,30.12,ENE,78,0.0,-999.0,16,-99.99,,,0.00,weatherlink.com 1.10,2013-01-20 02:49:00,
2013-01-19 19:04:00,44.7,1.0,30.13,East,95,0.0,-999.0,16,-99.99,,,0.00,weatherlink.com 1.10,2013-01-20 03:04:00,
2013-01-19 19:19:00,44.8,-1.0,30.12,East,99,10.0,-999.0,15,-99.99,,,0.00,weatherlink.com 1.10,2013-01-20 03:19:00,
2013-01-19 19:34:00,44.7,-1.0,30.12,NE,40,1.0,-999.0,15,-99.99,,,0.00,weatherlink.com 1.10,2013-01-20 03:34:00,
2013-01-19 19:49:00,44.5,-1.0,30.13,SE,127,6.0,-999.0,15,-99.99,,,0.00,weatherlink.com 1.10,2013-01-20 03:49:00,
2013-01-19 20:04:00,44.5,1.0,30.12,ESE,102,0.0,-999.0,16,-99.99,,,0.00,weatherlink.com 1.10,2013-01-20 04:04:00,
2013-01-19 20:19:00,44.5,-1.0,30.11,ESE,107,10.0,-999.0,15,-99.99,,,0.00,weatherlink.com 1.10,2013-01-20 04:19:00,
2013-01-19 20:34:00,44.5,1.0,30.12,West,277,2.0,-999.0,16,-99.99,,,0.00,weatherlink.com 1.10,2013-01-20 04:34:00,
2013-01-19 20:49:00,44.8,-1.0,30.12,West,277,2.0,-999.0,15,-99.99,,,0.00,weatherlink.com 1.10,2013-01-20 04:49:00,
2013-01-19 21:04:00,44.7,-1.0,30.12,NE,34,1.0,-999.0,15,-99.99,,,0.00,weatherlink.com 1.10,2013-01-20 05:04:00,
2013-01-19 21:19:00,44.7,-1.0,30.12,North,4,1.0,-999.0,15,-99.99,,,0.00,weatherlink.com 1.10,2013-01-20 05:19:00,
2013-01-19 21:34:00,44.7,-1.0,30.12,East,97,12.0,-999.0,15,-99.99,,,0.00,weatherlink.com 1.10,2013-01-20 05:34:00,
2013-01-19 21:49:00,44.5,-1.0,30.14,SE,140,1.0,-999.0,15,-99.99,,,0.00,weatherlink.com 1.10,2013-01-20 05:49:00,
2013-01-19 22:05:00,45.2,-2.0,30.12,NE,37,0.0,-999.0,14,-99.99,,,0.00,weatherlink.com 1.10,2013-01-20 06:05:00,
2013-01-19 22:19:00,45.1,0.0,30.11,SSW,196,3.0,-999.0,15,-99.99,,,0.00,weatherlink.com 1.10,2013-01-20 06:19:00,
2013-01-19 22:34:00,45.0,0.0,30.11,ESE,121,15.0,-999.0,15,-99.99,,,0.00,weatherlink.com 1.10,2013-01-20 06:34:00,
2013-01-19 22:49:00,45.1,0.0,30.12,ESE,119,1.0,-999.0,15,-99.99,,,0.00,weatherlink.com 1.10,2013-01-20 06:49:00,
2013-01-19 23:04:00,44.8,1.0,30.12,WSW,248,7.0,-999.0,16,-99.99,,,0.00,weatherlink.com 1.10,2013-01-20 07:04:00,
2013-01-19 23:21:00,45.1,1.0,30.13,ENE,66,4.0,-999.0,16,-99.99,,,0.00,weatherlink.com 1.10,2013-01-20 07:21:00,
2013-01-19 23:34:00,45.1,0.0,30.12,ESE,103,6.0,-999.0,15,-99.99,,,0.00,weatherlink.com 1.10,2013-01-20 07:34:00,
2013-01-19 23:49:00,45.4,1.0,30.11,South,172,1.0,-999.0,16,-99.99,,,0.00,weatherlink.com 1.10,2013-01-20 07:49:00,